User: anonymous
Location: Caltech
(34.1382°N, 118.1253°W)
Time: 21:36:31
(UTC-07:00)
Language:

Cosmos 44 Rocket - Orbit

View from above orbital plane
View from above orbital plane
View from above satellite
View from above satellite

Ground track
Ground track

The orbit data is extracted from the following two-line orbital elements,

1 00877U 64053B   14245.71984869  .00000129  00000-0  51916-4 0  7040
2 00877 065.0806 027.5357 0060064 164.9587 195.3317 14.58879095652912
Epoch (UTC): 02 September 2014 17:16:34
Eccentricity: 0.0060064
inclination: 65.0806°
perigee height: 654 km
apogee height: 739 km
right ascension of ascending node: 27.5357°
argument of perigee: 164.9587°
revolutions per day: 14.58879095
mean anomaly at epoch: 195.3317°
orbit number at epoch: 65291

The dashed part of the orbit path shows where the satellite is in the earth's shadow,  

DLR